Tracking 20942 objects as of 4-Jul-2020
HD Live streaming from Space Station
objects crossing your sky now

COSMOS 1420

Track COSMOS 1420 now!
10-day predictions
COSMOS 1420 is classified as:


NORAD ID: 13648
Int'l Code: 1982-109A
Perigee: 772.6 km
Apogee: 799.5 km
Inclination: 74.0 °
Period: 100.4 minutes
Semi major axis: 7157 km
RCS: 2.7828 m2 (large)
Launch date: November 11, 1982
Source: Commonwealth of Independent States (former USSR) (CIS)
Launch site: PLESETSK MISSILE AND SPACE COMPLEX (PKMTR)
aabbcc
Your satellite tracking list
Your tracking list is empty




NASA's NSSDC Master Catalog

Two Line Element Set (TLE):
1 13648U 82109A   20186.12233100  .00000012  00000-0  13685-4 0  9991
2 13648  73.9927 211.7187 0018806 106.5741 253.7478 14.33855612968170
Source of the keplerian elements: AFSPC